Weather History for Aurora, CO

Change the Weather History Date:

Saturday, September 14, 2013

  Actual Average Record
Temperature  
Mean Temperature 67 °F -  
Max Temperature 77 °F 74 °F 89 °F (2010)
Min Temperature 57 °F 48 °F 33 °F (2003)
Cooling Degree Days 2    
Growing Degree Days 17 (Base 50)    
Moisture  
Dew Point 57 °F    
Average Humidity 85    
Maximum Humidity 100    
Minimum Humidity 50    
Precipitation  
Precipitation 1.73 in - - ()
Sea Level Pressure  
Sea Level Pressure 29.87 in    
Wind  
Wind Speed 7 mph (WNW)    
Max Wind Speed 23 mph    
Max Gust Speed 41 mph    
Visibility 8 miles    
Events Rain , Thunderstorm    
Averages and records for this station are not official NWS values.
T = Trace of Precipitation, MM = Missing Value Source: NWS Daily Summary

Daily Weather History Graph

Daily Weather History Graph

Search for Another Location

Airport:

Trip Planner

Search our weather history database for the weather conditions in past years. The results will help you decide how hot, cold, wet, or windy it might be!

Date:

Astronomy

Sep. 14, 2013 Rise Set
Actual Time 6:39 AM MDT 7:08 PM MDT
Civil Twilight 6:12 AM MDT 7:35 PM MDT
Nautical Twilight 5:40 AM MDT 8:07 PM MDT
Astronomical Twilight 5:07 AM MDT 8:40 PM MDT
Moon 3:51 PM MDT (9/14) 1:14 AM MDT (9/14)
Length of Visible Light 13h 23m
Length of Day
12h 29m
Waxing Gibbous, 73% of the Moon is Illuminated
Sep 14
Waxing Gibbous
Sep 19
Full
Sep 26
Last Quarter
Oct 4
New
Oct 11
First Quarter

Hourly Weather History & Observations

Time (MDT) Temp. Dew Point Humidity Pressure Visibility Wind Dir Wind Speed Gust Speed Precip Events Conditions
12:55 AM 59.0 °F 53.6 °F 82% 29.81 in 10.0 mi South 11.5 mph - N/A   Mostly Cloudy
1:55 AM 59.0 °F 53.6 °F 82% 29.81 in 10.0 mi SSW 8.1 mph - N/A   Mostly Cloudy
2:39 AM 59.0 °F 55.4 °F 88% 30.02 in 10.0 mi SSW 5.8 mph - N/A   Mostly Cloudy
2:55 AM 59.0 °F 55.4 °F 88% 29.81 in 10.0 mi SSW 3.5 mph - N/A   Overcast
3:45 AM 60.8 °F 60.8 °F 100% 30.01 in 10.0 mi NW 9.2 mph - N/A   Overcast
3:55 AM 60.8 °F 60.8 °F 100% 29.80 in 10.0 mi NNW 6.9 mph - N/A   Overcast
4:55 AM 60.8 °F 59.0 °F 94% 29.81 in 10.0 mi WNW 5.8 mph - N/A   Overcast
5:55 AM 59.0 °F 59.0 °F 100% 29.81 in 10.0 mi North 4.6 mph - N/A   Overcast
6:55 AM 59.0 °F 57.2 °F 94% 29.83 in 2.0 mi SSW 3.5 mph - N/A   Overcast
7:29 AM 59.0 °F 57.2 °F 94% 30.02 in 3.0 mi WNW 3.5 mph - N/A   Mostly Cloudy
7:55 AM 59.0 °F 57.2 °F 94% 29.84 in 4.0 mi WNW 3.5 mph - N/A   Mostly Cloudy
8:25 AM 59.0 °F 57.2 °F 94% 30.02 in 6.0 mi WSW 3.5 mph - N/A   Mostly Cloudy
8:55 AM 60.8 °F 59.0 °F 94% 29.84 in 6.0 mi SSW 3.5 mph - N/A   Mostly Cloudy
9:55 AM 62.6 °F 57.2 °F 82% 29.84 in 7.0 mi SSW 4.6 mph - N/A   Mostly Cloudy
10:55 AM 66.2 °F 57.2 °F 73% 29.82 in 7.0 mi SSW 3.5 mph - N/A   Mostly Cloudy
11:55 AM 69.8 °F 55.4 °F 60% 29.80 in 7.0 mi East 3.5 mph - N/A   Mostly Cloudy
12:55 PM 73.4 °F 55.4 °F 53% 29.79 in 7.0 mi NE 5.8 mph - N/A   Mostly Cloudy
1:55 PM 77.0 °F 57.2 °F 50% 29.76 in 10.0 mi NNE 8.1 mph - N/A   Mostly Cloudy
2:55 PM 77.0 °F 57.2 °F 50% 29.74 in 10.0 mi North 10.4 mph - N/A Thunderstorm Mostly Cloudy
3:07 PM 73.4 °F 55.4 °F 53% 29.95 in 10.0 mi NNE 15.0 mph - N/A Thunderstorm Thunderstorm
3:55 PM 62.6 °F 59.0 °F 88% 29.78 in 3.0 mi SSE 23.0 mph 41.4 mph N/A Rain , Thunderstorm Thunderstorms and Rain
4:55 PM 57.2 °F 53.6 °F 88% 29.85 in 5.0 mi NNE 10.4 mph - N/A Rain , Thunderstorm Light Thunderstorms and Rain
5:55 PM 59.0 °F 57.2 °F 94% 29.86 in 25.0 mi North 13.8 mph - N/A Rain , Thunderstorm Light Thunderstorms and Rain
6:20 PM 59.0 °F 55.4 °F 88% 30.02 in 25.0 mi NNE 6.9 mph - N/A Rain , Thunderstorm Light Rain Showers
6:55 PM 59.0 °F 57.2 °F 94% 29.88 in 25.0 mi West 4.6 mph - N/A Rain , Thunderstorm Light Rain Showers
7:55 PM 59.0 °F 57.2 °F 94% 29.86 in 25.0 mi SSW 10.4 mph - N/A   Mostly Cloudy
8:55 PM 59.0 °F 55.4 °F 88% 29.88 in 25.0 mi Calm Calm - N/A   Mostly Cloudy
9:55 PM 59.0 °F 59.0 °F 100% 29.91 in 25.0 mi North 3.5 mph - N/A   Mostly Cloudy
10:55 PM 57.2 °F 57.2 °F 100% 29.92 in 10.0 mi NE 3.5 mph - N/A   Mostly Cloudy
11:55 PM 57.2 °F 57.2 °F 100% 29.91 in 10.0 mi WSW 1.2 mph - N/A   Overcast